User: anonymous   Login
Location: �clusier
(49.9361°N, 2.7869°E)
Time: 07:23:49
(UTC+00:00)
Language:

RESURS O1 DEB - Orbit

View from above orbital plane
View from above orbital plane
View from above satellite
View from above satellite

Ground track
Ground track

The orbit data is extracted from the following two-line orbital elements,

1 47209U 94074CV  22028.57900460  .00006811  00000-0  82267-3 0  9995
2 47209  97.8787  80.3766 0003059  61.1683 298.9838 14.84063548 64945
Epoch (UTC): 28 January 2022 13:53:45
Eccentricity: 0.0003059
inclination: 97.8787°
perigee height: 614 km
apogee height: 618 km
right ascension of ascending node: 80.3766°
argument of perigee: 61.1683°
revolutions per day: 14.84063548
mean anomaly at epoch: 298.9838°
orbit number at epoch: 6494

The dashed part of the orbit path shows where the satellite is in the earth's shadow,  

DLR